QPF
0.03 0.03 0.04 0.06 0.06 0.05 0.05 0.07 0.05 0.03 0.03 0.04 0.04 0.04 0.03 0.04 0.04 0.04 0.05 0.05 0.05 0.05 0.05 0.05 0.06 0.07 0.08 0.07 0.07 0.07 0.07 0.07 0.06 0.05 0.05 0.04 0.04 0.05 0.06 0.07 0.08 0.07 0.08
0.03 0.03 0.04 0.06 0.04 0.03 0.03 0.04 0.03 0.03 0.02 0.03 0.04 0.05 0.04 0.04 0.05 0.05 0.05 0.05 0.05 0.04 0.04 0.04 0.05 0.06 0.06 0.07 0.07 0.06 0.06 0.08 0.08 0.08 0.05 0.04 0.05 0.06 0.07 0.08 0.07 0.07 0.08
0.04 0.04 0.05 0.05 0.05 0.04 0.04 0.04 0.04 0.04 0.03 0.03 0.05 0.05 0.05 0.04 0.04 0.04 0.05 0.05 0.04 0.04 0.04 0.05 0.06 0.07 0.07 0.07 0.06 0.06 0.06 0.07 0.08 0.08 0.06 0.06 0.05 0.06 0.08 0.07 0.07 0.07 0.06
0.03 0.04 0.06 0.06 0.06 0.05 0.05 0.05 0.05 0.06 0.06 0.06 0.06 0.07 0.07 0.05 0.05 0.05 0.05 0.05 0.05 0.05 0.05 0.05 0.06 0.05 0.06 0.06 0.05 0.06 0.07 0.08 0.08 0.07 0.05 0.04 0.05 0.05 0.06 0.05 0.05 0.06 0.06
0.01 0.01 0.01 0.03 0.05 0.04 0.02 0.02 0.03 0.06 0.09 0.10 0.08 0.08 0.07 0.06 0.05 0.05 0.07 0.07 0.09 0.08 0.07 0.06 0.05 0.05 0.05 0.05 0.04 0.05 0.06 0.06 0.06 0.05 0.05 0.05 0.05 0.05 0.04 0.04 0.03 0.04 0.04
0.01 0.01 0.01 0.01 0.01 0.02 0.01 0.02 0.03 0.04 0.05 0.07 0.08 0.09 0.06 0.04 0.04 0.05 0.07 0.09 0.09 0.08 0.07 0.06 0.05 0.05 0.05 0.05 0.05 0.04 0.05 0.06 0.05 0.04 0.03 0.03 0.03 0.03 0.03 0.03 0.04 0.04 0.05
0.00 0.01 0.01 0.01 0.01 0.01 0.01 0.02 0.03 0.04 0.05 0.06 0.05 0.05 0.04 0.04 0.04 0.05 0.05 0.07 0.09 0.07 0.07 0.08 0.06 0.04 0.04 0.03 0.04 0.03 0.03 0.02 0.02 0.02 0.02 0.02 0.02 0.03 0.04 0.04 0.05 0.05 0.06
0.01 0.01 0.01 0.01 0.02 0.02 0.03 0.05 0.05 0.05 0.05 0.05 0.05 0.05 0.05 0.04 0.04 0.04 0.04 0.05 0.05 0.05 0.04 0.03 0.03 0.03 0.02 0.02 0.03 0.03 0.02 0.02 0.01 0.01 0.01 0.02 0.02 0.02 0.03 0.03 0.05 0.05 0.04
0.01 0.01 0.01 0.01 0.02 0.02 0.03 0.04 0.05 0.06 0.06 0.05 0.04 0.05 0.06 0.06 0.07 0.06 0.06 0.06 0.05 0.04 0.03 0.02 0.02 0.02 0.02 0.02 0.03 0.03 0.03 0.02 0.01 0.01 0.01 0.01 0.02 0.02 0.03 0.03 0.03 0.03 0.03
0.01 0.02 0.01 0.02 0.02 0.03 0.04 0.04 0.04 0.05 0.07 0.07 0.04 0.04 0.04 0.07 0.11 0.13 0.10 0.07 0.06 0.04 0.03 0.04 0.03 0.03 0.04 0.04 0.04 0.04 0.03 0.03 0.02 0.02 0.02 0.02 0.02 0.02 0.03 0.03 0.03 0.04 0.03
0.02 0.02 0.02 0.02 0.03 0.03 0.04 0.04 0.04 0.04 0.05 0.05 0.04 0.03 0.04 0.05 0.06 0.09 0.09 0.08 0.08 0.08 0.08 0.07 0.07 0.06 0.06 0.05 0.04 0.04 0.04 0.04 0.04 0.04 0.05 0.05 0.05 0.05 0.04 0.03 0.03 0.04 0.04
0.03 0.04 0.04 0.05 0.06 0.04 0.04 0.04 0.03 0.03 0.03 0.03 0.04 0.04 0.03 0.03 0.03 0.03 0.03 0.03 0.04 0.05 0.04 0.04 0.04 0.03 0.02 0.02 0.02 0.02 0.03 0.03 0.04 0.05 0.05 0.06 0.06 0.06 0.05 0.04 0.04 0.04 0.03
0.03 0.04 0.08 0.11 0.11 0.08 0.05 0.04 0.03 0.03 0.03 0.03 0.03 0.02 0.02 0.02 0.02 0.01 0.01 0.02 0.02 0.02 0.02 0.02 0.02 0.01 0.01 0.01 0.01 0.01 0.01 0.01 0.01 0.01 0.02 0.02 0.03 0.04 0.04 0.04 0.04 0.05 0.05
0.02 0.02 0.02 0.04 0.06 0.05 0.04 0.03 0.03 0.03 0.03 0.03 0.02 0.02 0.02 0.02 0.02 0.01 0.01 0.01 0.01 0.01 0.00 0.01 0.00 0.00 0.00 0.00 0.00 0.01 0.01 0.01 0.01 0.01 0.01 0.02 0.02 0.02 0.02 0.03 0.03 0.04 0.05
0.02 0.01 0.01 0.02 0.01 0.01 0.01 0.02 0.02 0.02 0.02 0.02 0.03 0.03 0.02 0.02 0.01 0.01 0.01 0.01 0.00 0.00 0.00 0.00 0.00 0.00 0.00 0.00 0.00 0.00 0.01 0.01 0.01 0.01 0.01 0.01 0.01 0.02 0.02 0.02 0.03 0.03 0.03
0.02 0.02 0.02 0.02 0.01 0.01 0.01 0.01 0.01 0.01 0.01 0.01 0.01 0.01 0.01 0.01 0.01 0.01 0.00 0.00 0.00 0.00 0.00 0.00 0.00 0.00 0.00 0.00 0.01 0.00 0.01 0.01 0.01 0.01 0.01 0.01 0.01 0.01 0.01 0.02 0.02 0.02 0.02
0.02 0.02 0.02 0.02 0.01 0.01 0.01 0.01 0.01 0.01 0.01 0.01 0.01 0.01 0.01 0.01 0.01 0.01 0.01 0.01 0.00 0.00 0.00 0.00 0.00 0.01 0.00 0.00 0.01 0.01 0.01 0.01 0.01 0.01 0.01 0.01 0.01 0.01 0.02 0.02 0.02 0.02 0.03
0.02 0.03 0.02 0.02 0.02 0.02 0.02 0.02 0.02 0.02 0.01 0.01 0.01 0.02 0.02 0.02 0.02 0.02 0.02 0.01 0.01 0.01 0.01 0.01 0.01 0.01 0.01 0.02 0.02 0.02 0.02 0.02 0.01 0.01 0.01 0.01 0.02 0.02 0.02 0.02 0.03 0.03 0.04
0.03 0.03 0.03 0.03 0.02 0.02 0.02 0.02 0.02 0.01 0.01 0.02 0.02 0.03 0.03 0.03 0.03 0.02 0.02 0.02 0.02 0.02 0.02 0.02 0.02 0.02 0.03 0.03 0.03 0.03 0.03 0.03 0.02 0.02 0.02 0.02 0.03 0.03 0.04 0.04 0.05 0.06 0.06
0.02 0.03 0.04 0.03 0.03 0.03 0.02 0.02 0.02 0.02 0.03 0.04 0.05 0.05 0.05 0.04 0.03 0.03 0.02 0.02 0.03 0.02 0.02 0.02 0.02 0.02 0.02 0.02 0.02 0.02 0.03 0.03 0.04 0.04 0.05 0.05 0.05 0.06 0.06 0.05 0.06 0.06 0.07
0.03 0.03 0.04 0.03 0.03 0.03 0.04 0.04 0.04 0.05 0.05 0.06 0.06 0.06 0.05 0.04 0.04 0.03 0.03 0.03 0.02 0.02 0.02 0.02 0.02 0.01 0.02 0.02 0.02 0.03 0.03 0.04 0.05 0.05 0.05 0.05 0.05 0.05 0.05 0.05 0.06 0.06 0.06
0.03 0.04 0.04 0.05 0.05 0.05 0.05 0.05 0.06 0.06 0.07 0.07 0.07 0.07 0.06 0.05 0.05 0.04 0.04 0.04 0.04 0.04 0.03 0.03 0.02 0.02 0.02 0.01 0.02 0.02 0.02 0.03 0.03 0.03 0.03 0.03 0.03 0.03 0.03 0.04 0.04 0.04 0.04
0.04 0.03 0.04 0.04 0.03 0.03 0.04 0.04 0.05 0.05 0.05 0.05 0.06 0.06 0.06 0.06 0.06 0.05 0.04 0.04 0.04 0.03 0.03 0.02 0.02 0.01 0.01 0.01 0.01 0.01 0.01 0.01 0.01 0.01 0.02 0.02 0.02 0.02 0.02 0.03 0.03 0.02 0.02
0.03 0.02 0.02 0.03 0.03 0.03 0.03 0.03 0.03 0.03 0.03 0.03 0.03 0.03 0.03 0.03 0.03 0.04 0.04 0.04 0.03 0.02 0.02 0.01 0.01 0.01 0.00 0.00 0.00 0.00 0.00 0.00 0.00 0.01 0.01 0.01 0.01 0.01 0.01 0.02 0.03 0.03 0.03
0.03 0.02 0.02 0.03 0.03 0.04 0.05 0.05 0.04 0.04 0.03 0.04 0.04 0.04 0.03 0.03 0.04 0.03 0.03 0.03 0.02 0.02 0.01 0.01 0.01 0.01 0.01 0.00 0.00 0.00 0.00 0.00 0.00 0.00 0.00 0.01 0.01 0.01 0.01 0.01 0.02 0.02 0.02
0.03 0.03 0.03 0.04 0.05 0.05 0.06 0.06 0.05 0.04 0.04 0.04 0.04 0.04 0.04 0.03 0.03 0.03 0.02 0.02 0.02 0.02 0.02 0.02 0.01 0.01 0.01 0.01 0.01 0.01 0.00 0.00 0.00 0.00 0.00 0.00 0.01 0.01 0.01 0.01 0.01 0.01 0.01
MSLP
1014.66 1015.13 1015.60 1016.02 1016.37 1016.62 1016.79 1016.89 1016.95 1016.99 1017.05 1017.14 1017.26 1017.40 1017.53 1017.62 1017.67 1017.65 1017.57 1017.44 1017.29 1017.16 1017.06 1017.00 1016.99 1017.01 1017.03 1016.99 1016.88 1016.64 1016.28 1015.80 1015.22 1014.60 1013.99 1013.45 1013.03 1012.76 1012.66 1012.70 1012.86 1013.10 1013.35
1014.71 1015.18 1015.64 1016.06 1016.41 1016.67 1016.86 1016.97 1017.05 1017.13 1017.22 1017.33 1017.48 1017.64 1017.79 1017.91 1017.97 1017.95 1017.87 1017.73 1017.56 1017.39 1017.24 1017.14 1017.08 1017.05 1017.03 1016.97 1016.84 1016.61 1016.26 1015.80 1015.24 1014.64 1014.04 1013.51 1013.08 1012.80 1012.68 1012.70 1012.84 1013.06 1013.32
1014.76 1015.22 1015.68 1016.09 1016.43 1016.69 1016.88 1017.01 1017.11 1017.21 1017.32 1017.47 1017.65 1017.85 1018.04 1018.19 1018.28 1018.29 1018.22 1018.09 1017.91 1017.72 1017.54 1017.39 1017.28 1017.19 1017.12 1017.01 1016.85 1016.59 1016.24 1015.77 1015.22 1014.63 1014.04 1013.51 1013.09 1012.81 1012.68 1012.70 1012.86 1013.10 1013.39
1014.75 1015.19 1015.63 1016.02 1016.35 1016.60 1016.79 1016.92 1017.04 1017.16 1017.30 1017.49 1017.70 1017.94 1018.17 1018.37 1018.50 1018.56 1018.53 1018.43 1018.27 1018.07 1017.87 1017.69 1017.53 1017.39 1017.25 1017.09 1016.87 1016.57 1016.18 1015.70 1015.14 1014.55 1013.96 1013.44 1013.02 1012.75 1012.64 1012.69 1012.88 1013.18 1013.55
1014.62 1015.03 1015.43 1015.79 1016.09 1016.33 1016.52 1016.66 1016.79 1016.93 1017.10 1017.32 1017.57 1017.85 1018.13 1018.38 1018.57 1018.68 1018.71 1018.65 1018.52 1018.35 1018.15 1017.95 1017.76 1017.57 1017.37 1017.15 1016.87 1016.52 1016.09 1015.57 1015.00 1014.40 1013.81 1013.29 1012.89 1012.63 1012.55 1012.64 1012.90 1013.28 1013.76
1014.36 1014.72 1015.07 1015.39 1015.66 1015.88 1016.05 1016.20 1016.35 1016.51 1016.71 1016.96 1017.24 1017.56 1017.88 1018.17 1018.42 1018.59 1018.67 1018.67 1018.59 1018.45 1018.28 1018.09 1017.88 1017.66 1017.42 1017.15 1016.82 1016.43 1015.95 1015.41 1014.82 1014.21 1013.63 1013.12 1012.74 1012.51 1012.47 1012.61 1012.94 1013.41 1014.00
1014.01 1014.29 1014.57 1014.84 1015.07 1015.27 1015.44 1015.60 1015.75 1015.94 1016.16 1016.43 1016.74 1017.08 1017.43 1017.76 1018.04 1018.26 1018.40 1018.46 1018.44 1018.36 1018.22 1018.05 1017.85 1017.63 1017.37 1017.07 1016.72 1016.29 1015.80 1015.25 1014.66 1014.05 1013.49 1013.01 1012.65 1012.46 1012.46 1012.66 1013.04 1013.59 1014.27
1013.61 1013.80 1014.01 1014.22 1014.42 1014.59 1014.76 1014.92 1015.09 1015.29 1015.53 1015.81 1016.13 1016.48 1016.84 1017.19 1017.50 1017.75 1017.94 1018.05 1018.09 1018.06 1017.98 1017.85 1017.68 1017.47 1017.23 1016.93 1016.57 1016.15 1015.67 1015.13 1014.56 1013.99 1013.47 1013.03 1012.72 1012.57 1012.61 1012.84 1013.27 1013.87 1014.60
1013.23 1013.34 1013.48 1013.63 1013.79 1013.95 1014.10 1014.27 1014.45 1014.66 1014.90 1015.18 1015.50 1015.84 1016.19 1016.54 1016.86 1017.13 1017.35 1017.50 1017.59 1017.62 1017.60 1017.52 1017.40 1017.23 1017.01 1016.74 1016.42 1016.03 1015.59 1015.10 1014.59 1014.09 1013.63 1013.25 1013.00 1012.89 1012.97 1013.23 1013.67 1014.27 1015.01
1012.95 1012.97 1013.04 1013.14 1013.26 1013.40 1013.55 1013.71 1013.90 1014.11 1014.35 1014.61 1014.91 1015.24 1015.57 1015.90 1016.21 1016.49 1016.73 1016.92 1017.05 1017.13 1017.16 1017.13 1017.06 1016.94 1016.78 1016.56 1016.28 1015.95 1015.58 1015.17 1014.75 1014.34 1013.98 1013.68 1013.50 1013.45 1013.55 1013.82 1014.24 1014.80 1015.48
1012.75 1012.70 1012.71 1012.76 1012.85 1012.97 1013.11 1013.27 1013.45 1013.65 1013.88 1014.13 1014.41 1014.70 1015.00 1015.31 1015.61 1015.89 1016.14 1016.36 1016.53 1016.65 1016.72 1016.75 1016.73 1016.66 1016.54 1016.38 1016.17 1015.92 1015.64 1015.33 1015.02 1014.73 1014.47 1014.28 1014.18 1014.19 1014.31 1014.57 1014.94 1015.43 1016.01
1012.63 1012.52 1012.47 1012.47 1012.53 1012.62 1012.75 1012.90 1013.07 1013.26 1013.47 1013.70 1013.95 1014.22 1014.50 1014.79 1015.08 1015.36 1015.62 1015.86 1016.06 1016.22 1016.33 1016.40 1016.42 1016.39 1016.32 1016.21 1016.06 1015.89 1015.70 1015.51 1015.32 1015.15 1015.02 1014.94 1014.93 1015.00 1015.15 1015.38 1015.70 1016.09 1016.54
1012.50 1012.33 1012.23 1012.20 1012.22 1012.28 1012.38 1012.51 1012.66 1012.84 1013.03 1013.24 1013.48 1013.73 1014.00 1014.29 1014.58 1014.87 1015.15 1015.41 1015.64 1015.83 1015.97 1016.07 1016.11 1016.12 1016.08 1016.01 1015.91 1015.81 1015.71 1015.62 1015.55 1015.50 1015.50 1015.53 1015.61 1015.74 1015.91 1016.13 1016.38 1016.67 1016.99
1012.30 1012.08 1011.93 1011.84 1011.82 1011.85 1011.91 1012.02 1012.15 1012.31 1012.49 1012.69 1012.92 1013.17 1013.45 1013.75 1014.06 1014.37 1014.68 1014.97 1015.23 1015.45 1015.62 1015.73 1015.79 1015.81 1015.78 1015.74 1015.68 1015.63 1015.59 1015.58 1015.61 1015.68 1015.78 1015.92 1016.09 1016.27 1016.47 1016.68 1016.88 1017.09 1017.29
1011.98 1011.70 1011.49 1011.35 1011.28 1011.26 1011.29 1011.36 1011.48 1011.62 1011.79 1012.00 1012.23 1012.50 1012.80 1013.13 1013.47 1013.83 1014.17 1014.50 1014.79 1015.04 1015.22 1015.35 1015.42 1015.43 1015.41 1015.37 1015.33 1015.30 1015.31 1015.36 1015.46 1015.61 1015.80 1016.02 1016.26 1016.50 1016.73 1016.93 1017.11 1017.25 1017.36
1011.52 1011.19 1010.92 1010.73 1010.60 1010.53 1010.52 1010.57 1010.66 1010.79 1010.96 1011.18 1011.43 1011.73 1012.07 1012.43 1012.82 1013.22 1013.61 1013.98 1014.31 1014.58 1014.78 1014.92 1014.99 1015.00 1014.97 1014.93 1014.88 1014.86 1014.88 1014.96 1015.10 1015.30 1015.54 1015.82 1016.11 1016.39 1016.64 1016.86 1017.02 1017.13 1017.20
1011.00 1010.61 1010.29 1010.03 1009.85 1009.74 1009.70 1009.71 1009.79 1009.92 1010.10 1010.33 1010.61 1010.94 1011.32 1011.73 1012.16 1012.61 1013.04 1013.45 1013.81 1014.11 1014.33 1014.48 1014.55 1014.55 1014.52 1014.46 1014.40 1014.37 1014.39 1014.47 1014.62 1014.83 1015.09 1015.39 1015.70 1016.00 1016.27 1016.50 1016.66 1016.78 1016.83
1010.51 1010.07 1009.70 1009.40 1009.17 1009.03 1008.96 1008.96 1009.03 1009.16 1009.35 1009.60 1009.91 1010.27 1010.68 1011.13 1011.59 1012.07 1012.54 1012.98 1013.37 1013.69 1013.93 1014.09 1014.16 1014.18 1014.14 1014.07 1014.00 1013.95 1013.95 1014.01 1014.13 1014.32 1014.57 1014.85 1015.16 1015.46 1015.73 1015.96 1016.14 1016.27 1016.34
1010.16 1009.69 1009.29 1008.96 1008.71 1008.55 1008.47 1008.46 1008.53 1008.67 1008.88 1009.15 1009.48 1009.86 1010.28 1010.75 1011.23 1011.73 1012.21 1012.66 1013.06 1013.40 1013.66 1013.83 1013.93 1013.95 1013.91 1013.84 1013.76 1013.70 1013.67 1013.69 1013.78 1013.92 1014.12 1014.36 1014.63 1014.90 1015.16 1015.38 1015.57 1015.72 1015.82
1010.06 1009.58 1009.17 1008.83 1008.58 1008.41 1008.34 1008.34 1008.42 1008.58 1008.80 1009.08 1009.41 1009.80 1010.22 1010.68 1011.16 1011.65 1012.12 1012.57 1012.98 1013.32 1013.59 1013.78 1013.89 1013.93 1013.92 1013.85 1013.77 1013.69 1013.63 1013.61 1013.64 1013.72 1013.86 1014.03 1014.24 1014.46 1014.68 1014.89 1015.08 1015.24 1015.38
1010.25 1009.78 1009.38 1009.06 1008.83 1008.68 1008.62 1008.64 1008.74 1008.90 1009.13 1009.41 1009.74 1010.12 1010.52 1010.96 1011.40 1011.86 1012.31 1012.73 1013.12 1013.46 1013.74 1013.94 1014.08 1014.14 1014.14 1014.10 1014.02 1013.93 1013.85 1013.78 1013.75 1013.76 1013.82 1013.92 1014.05 1014.21 1014.39 1014.56 1014.74 1014.91 1015.07
1010.71 1010.28 1009.91 1009.62 1009.41 1009.29 1009.25 1009.29 1009.41 1009.58 1009.81 1010.08 1010.40 1010.74 1011.11 1011.50 1011.90 1012.31 1012.71 1013.10 1013.46 1013.78 1014.05 1014.27 1014.42 1014.51 1014.54 1014.51 1014.44 1014.35 1014.25 1014.14 1014.06 1014.01 1013.99 1014.01 1014.06 1014.15 1014.27 1014.41 1014.57 1014.74 1014.91
1011.37 1010.98 1010.66 1010.40 1010.23 1010.13 1010.12 1010.17 1010.29 1010.47 1010.69 1010.95 1011.23 1011.53 1011.85 1012.19 1012.53 1012.87 1013.22 1013.56 1013.88 1014.18 1014.44 1014.65 1014.82 1014.93 1014.98 1014.97 1014.92 1014.83 1014.71 1014.58 1014.45 1014.34 1014.26 1014.21 1014.20 1014.23 1014.30 1014.40 1014.53 1014.69 1014.86
1012.10 1011.76 1011.48 1011.26 1011.11 1011.03 1011.03 1011.09 1011.21 1011.37 1011.58 1011.80 1012.05 1012.31 1012.58 1012.85 1013.13 1013.42 1013.70 1013.99 1014.26 1014.53 1014.77 1014.98 1015.15 1015.27 1015.34 1015.35 1015.30 1015.22 1015.09 1014.94 1014.79 1014.63 1014.50 1014.40 1014.34 1014.33 1014.36 1014.43 1014.54 1014.68 1014.85
1012.79 1012.49 1012.24 1012.04 1011.91 1011.84 1011.84 1011.89 1011.99 1012.14 1012.31 1012.50 1012.71 1012.93 1013.14 1013.37 1013.59 1013.82 1014.05 1014.28 1014.51 1014.74 1014.96 1015.15 1015.31 1015.44 1015.51 1015.53 1015.50 1015.41 1015.29 1015.13 1014.96 1014.78 1014.62 1014.49 1014.40 1014.36 1014.36 1014.41 1014.50 1014.63 1014.79
1013.36 1013.09 1012.86 1012.67 1012.54 1012.47 1012.45 1012.48 1012.55 1012.67 1012.81 1012.97 1013.14 1013.32 1013.49 1013.67 1013.85 1014.03 1014.21 1014.40 1014.59 1014.79 1014.97 1015.14 1015.29 1015.41 1015.48 1015.50 1015.47 1015.39 1015.27 1015.11 1014.93 1014.75 1014.58 1014.43 1014.33 1014.26 1014.25 1014.28 1014.36 1014.47 1014.61
Thickness
5769 5765 5762 5759 5757 5754 5751 5749 5748 5746 5744 5743 5742 5741 5739 5738 5737 5735 5733 5732 5730 5728 5728 5727 5726 5726 5726 5726 5724 5723 5720 5717 5711 5709 5707 5704 5701 5698 5695 5694 5693 5691 5688
5769 5764 5760 5757 5755 5752 5750 5748 5746 5744 5742 5740 5739 5737 5736 5736 5734 5732 5730 5729 5727 5725 5724 5723 5722 5722 5721 5720 5719 5718 5716 5713 5709 5704 5701 5698 5695 5692 5690 5688 5687 5685 5682
5767 5762 5758 5755 5752 5749 5747 5745 5743 5741 5739 5738 5736 5734 5733 5731 5730 5728 5726 5725 5723 5721 5720 5718 5717 5717 5715 5715 5714 5713 5712 5710 5707 5702 5698 5694 5691 5688 5685 5683 5681 5678 5676
5766 5761 5757 5753 5750 5747 5744 5742 5740 5738 5736 5734 5732 5730 5729 5727 5725 5723 5722 5720 5718 5717 5715 5714 5712 5711 5710 5710 5709 5707 5705 5703 5700 5697 5693 5689 5686 5683 5680 5678 5675 5673 5671
5764 5759 5755 5751 5748 5745 5741 5739 5737 5735 5733 5730 5727 5725 5724 5722 5720 5717 5716 5715 5713 5711 5710 5708 5707 5705 5704 5703 5703 5701 5699 5697 5695 5692 5688 5684 5680 5677 5674 5672 5670 5668 5665
5760 5756 5753 5750 5746 5742 5739 5736 5733 5731 5728 5725 5722 5720 5718 5716 5712 5710 5709 5709 5708 5706 5704 5703 5702 5700 5698 5695 5694 5692 5691 5691 5689 5686 5684 5680 5675 5673 5670 5667 5664 5662 5658
5757 5753 5749 5746 5743 5740 5737 5733 5730 5727 5723 5720 5718 5715 5712 5708 5704 5703 5701 5702 5701 5700 5698 5697 5697 5695 5692 5691 5688 5685 5683 5682 5680 5680 5678 5675 5671 5668 5664 5661 5657 5655 5652
5753 5749 5746 5743 5739 5736 5732 5729 5725 5723 5720 5717 5713 5711 5707 5703 5698 5696 5695 5696 5695 5693 5692 5690 5688 5687 5685 5683 5682 5680 5678 5676 5674 5673 5671 5669 5666 5662 5658 5655 5651 5647 5645
5749 5744 5742 5739 5734 5730 5727 5723 5721 5718 5715 5712 5709 5706 5702 5697 5692 5690 5688 5690 5689 5687 5685 5683 5681 5678 5674 5673 5673 5672 5671 5669 5666 5663 5661 5659 5656 5653 5650 5648 5645 5643 5640
5745 5741 5738 5734 5730 5725 5721 5718 5715 5712 5710 5707 5703 5700 5697 5693 5687 5684 5682 5685 5683 5682 5679 5676 5672 5670 5667 5665 5666 5665 5663 5661 5658 5656 5653 5651 5648 5645 5642 5640 5639 5636 5634
5742 5737 5733 5729 5725 5720 5716 5713 5710 5707 5703 5700 5696 5693 5690 5686 5681 5678 5676 5678 5677 5676 5674 5671 5666 5661 5658 5657 5656 5656 5652 5650 5650 5648 5646 5644 5641 5638 5635 5632 5629 5627 5624
5736 5731 5727 5723 5720 5715 5709 5706 5703 5700 5696 5693 5690 5686 5683 5679 5674 5671 5669 5668 5668 5668 5666 5663 5658 5652 5650 5648 5647 5644 5642 5642 5643 5641 5638 5635 5632 5629 5625 5622 5618 5615 5612
5729 5725 5720 5716 5712 5707 5703 5699 5696 5693 5692 5689 5685 5681 5677 5673 5668 5663 5661 5659 5658 5659 5657 5652 5648 5644 5642 5641 5637 5635 5635 5636 5634 5632 5629 5626 5622 5619 5615 5612 5608 5604 5601
5722 5717 5713 5708 5704 5699 5696 5693 5690 5687 5685 5683 5679 5675 5672 5667 5663 5659 5656 5653 5649 5649 5647 5642 5638 5635 5634 5631 5630 5629 5628 5626 5624 5622 5619 5616 5612 5609 5606 5603 5600 5597 5593
5714 5710 5707 5703 5698 5692 5688 5684 5682 5677 5676 5673 5672 5669 5665 5661 5654 5649 5649 5647 5644 5642 5638 5636 5633 5631 5629 5626 5623 5621 5619 5616 5614 5611 5608 5605 5602 5599 5596 5593 5589 5587 5584
5706 5703 5701 5697 5692 5687 5682 5676 5668 5666 5662 5659 5656 5655 5654 5648 5643 5640 5638 5635 5632 5630 5629 5630 5627 5624 5621 5618 5615 5612 5609 5606 5602 5600 5597 5595 5592 5589 5586 5583 5580 5577 5574
5698 5696 5693 5689 5685 5681 5677 5672 5666 5657 5652 5649 5647 5644 5642 5637 5634 5631 5628 5625 5622 5620 5622 5622 5618 5615 5611 5608 5605 5602 5599 5595 5592 5590 5587 5585 5582 5579 5576 5574 5571 5568 5565
5690 5686 5683 5680 5677 5674 5670 5667 5663 5658 5653 5647 5639 5634 5631 5628 5625 5622 5619 5616 5616 5612 5614 5612 5608 5605 5601 5598 5595 5592 5589 5586 5583 5580 5577 5575 5572 5569 5567 5564 5561 5558 5555
5680 5677 5674 5672 5669 5666 5663 5659 5656 5651 5648 5643 5638 5629 5622 5619 5615 5611 5609 5611 5611 5607 5605 5602 5599 5596 5592 5588 5585 5582 5580 5577 5573 5570 5568 5564 5562 5560 5557 5555 5552 5546 5544
5668 5664 5662 5661 5659 5656 5653 5650 5646 5642 5639 5635 5631 5626 5618 5614 5612 5606 5602 5602 5601 5599 5595 5592 5589 5585 5582 5579 5576 5573 5571 5568 5565 5561 5558 5555 5552 5550 5548 5545 5544 5541 5538
5658 5654 5650 5651 5649 5646 5643 5640 5637 5634 5630 5627 5623 5617 5608 5609 5606 5602 5597 5594 5591 5589 5586 5582 5579 5575 5572 5568 5566 5563 5561 5559 5556 5552 5549 5546 5544 5541 5538 5537 5535 5532 5530
5648 5646 5643 5641 5638 5635 5632 5629 5627 5624 5620 5616 5613 5607 5598 5599 5597 5594 5590 5586 5583 5579 5576 5572 5569 5565 5562 5559 5556 5553 5551 5549 5546 5543 5539 5537 5534 5531 5529 5527 5525 5523 5521
5637 5635 5632 5629 5627 5621 5619 5618 5616 5613 5610 5606 5603 5598 5592 5589 5587 5584 5580 5577 5573 5569 5565 5562 5559 5556 5552 5549 5546 5544 5541 5538 5535 5532 5530 5528 5525 5522 5520 5517 5515 5513 5511
5626 5624 5622 5619 5616 5613 5610 5608 5605 5602 5599 5595 5592 5588 5585 5580 5577 5573 5570 5566 5563 5559 5556 5553 5549 5546 5543 5540 5537 5534 5530 5526 5523 5522 5519 5518 5516 5514 5511 5508 5506 5504 5501
5615 5613 5611 5608 5605 5603 5600 5597 5594 5591 5588 5585 5582 5579 5576 5572 5568 5565 5561 5557 5554 5551 5547 5543 5540 5537 5533 5529 5526 5523 5519 5515 5512 5510 5509 5508 5507 5505 5502 5500 5497 5495 5493
5604 5602 5600 5598 5596 5593 5590 5587 5584 5581 5578 5575 5572 5569 5565 5562 5559 5555 5552 5549 5546 5542 5538 5535 5531 5527 5523 5521 5517 5513 5509 5506 5503 5501 5499 5499 5498 5496 5493 5491 5489 5487 5485